Flag for United Kingdom Weather past 2 weeks in Chester, England, United Kingdom

Now
51 °F

Cool.


Feels Like: 48 °F
Forecast: 42 / 59 °F
Wind: 8 mph from Northwest

Location: Hawarden

Current Time: May 26, 2015 at 5:45:11 AM

Latest Report: May 26, 2015 at 4:00 AM


Visibility: 19 mi

Pressure: 30.20 "Hg

Humidity: 75%

Dew point: 44 °F

Location of ChesterLocation

Historic Weather in Chester — Graph

°F

Chester temperature yesterday

Maximum temperature yesterday: 57 °F (at 4:00 PM)
Minimum temperature yesterday: 48 °F (at 1:00 AM)
Average temperature yesterday: 53 °F

Past Weeks' High & Low Weather Summary

 TemperatureHumidityPressure
High65 °F (May 11, 2:00 PM)95% (May 18, 5:00 AM)30.32 "Hg (May 18, 5:00 AM)
Low38 °F (May 17, 5:00 AM)42% (May 13, 7:00 PM)29.47 "Hg (May 19, 12:00 AM)
Average53 °F71%30.06 "Hg
* Reported May 11 5:00 AM — May 26 4:00 AM, Chester, Weather by CustomWeather, © 2015

Note: Actual official high and low records may vary slightly from our data, if they occured in-between our weather recording intervals... More about our weather records

Advertising

Chester weather history for previous 24 hours

 ConditionsComfort  
Time TempWeatherWind HumidityBarometerVisibility
4:00 AM
Tue, May 26
51 °FCool.8 mph75%30.20 "Hg19 mi
3:00 AM52 °FCool.8 mph73%30.20 "Hg22 mi
2:00 AM52 °FCool.9 mph77%30.20 "Hg28 mi
1:00 AM52 °FCool.7 mph76%30.20 "Hg22 mi
12:00 AM53 °FCool.7 mph74%30.21 "Hg25 mi
11:00 PM
Mon, May 25
53 °FCool.7 mph75%30.19 "Hg25 mi
10:00 PM53 °FCool.6 mph81%30.18 "Hg22 mi
9:00 PM54 °FCool.10 mph77%30.17 "Hg28 mi
8:00 PM56 °FCool.10 mph73%30.15 "Hg25 mi
7:00 PM57 °FCool.8 mph70%30.15 "Hg28 mi
6:00 PM56 °FCool.8 mph67%30.15 "Hg31 mi
5:00 PM57 °FCool.13 mph67%30.14 "Hg22 mi
4:00 PM57 °FCool.14 mph72%30.14 "Hg16 mi
3:00 PM57 °FCool.10 mph66%30.13 "Hg22 mi
2:00 PM55 °FCool.14 mph75%30.13 "Hg14 mi
1:00 PM56 °FCool.12 mph71%30.12 "Hg16 mi
12:00 PM55 °FCool.10 mph68%30.13 "Hg14 mi
11:00 AM55 °FCool.10 mph66%30.12 "Hg12 mi
10:00 AM54 °FCool.9 mph67%30.12 "Hg12 mi
9:00 AM53 °FCool.9 mph71%30.12 "Hg12 mi
8:00 AM52 °FCool.9 mph73%30.12 "Hg11 mi
7:00 AM51 °FCool.8 mph75%30.12 "Hg13 mi
6:00 AM50 °FCool.2 mph76%30.12 "Hg13 mi
5:00 AM49 °FCool.6 mph76%30.12 "Hg14 mi
Weather by CustomWeather, © 2015

See weather overviewHow to use our weather pages